Station Historical Data
Daily Summary for May 3, 2012 Units:  Metric    English   Both
« Previous Day
Next Day »
Daily Weekly Monthly Yearly Custom
  High: Low: Average:
Temperature: 23.8 °C 18.8 °C 20.9 °C
Dew Point: 20.5 °C 17.6 °C 18.8 °C
Humidity: 93% 79% 88%
Wind Speed: 24.1km/h 0km/h 8.5km/h
Wind Gust: 30.6km/h - -
Wind- - SE
Pressure: 1018.2 hPa 1014.8 hPa -
Precipitation: 10.67 mm    
Historical Graphs
 
 
Tabular Data for May 3, 2012
Time Temperature Dew Point Pressure Wind Wind Speed Wind Gust Humidity Rainfall Rate (Hourly) Conditions
00:00 21.4 °C 18.2 °C 1015.8 hPa SW 4.8 km/h 4.8 km/h 82% 0 mm
00:02 21.4 °C 18.2 °C 1015.8 hPa WSW 4.8 km/h 6.4 km/h 82% 0 mm
00:07 21.4 °C 18.4 °C 1015.8 hPa SSW 1.6 km/h 4.8 km/h 83% 0 mm
00:12 21.3 °C 18.3 °C 1015.8 hPa SSW 1.6 km/h 3.2 km/h 83% 0 mm
00:17 21.1 °C 18.1 °C 1015.8 hPa SW 1.6 km/h 3.2 km/h 83% 0 mm
00:22 21 °C 18 °C 1015.5 hPa SW 1.6 km/h 3.2 km/h 83% 0 mm
00:27 20.9 °C 18.1 °C 1015.8 hPa SSW 1.6 km/h 3.2 km/h 84% 0 mm
00:32 20.9 °C 18.1 °C 1015.5 hPa SSW 3.2 km/h 3.2 km/h 84% 0 mm
00:37 20.8 °C 18.1 °C 1015.5 hPa South 4.8 km/h 4.8 km/h 84% 0 mm
00:42 20.8 °C 17.8 °C 1015.5 hPa SE 1.6 km/h 6.4 km/h 83% 0 mm
00:47 20.8 °C 18 °C 1015.5 hPa SSE 3.2 km/h 3.2 km/h 84% 0 mm
00:52 20.6 °C 18 °C 1015.5 hPa SSE 3.2 km/h 3.2 km/h 85% 0 mm
00:57 20.5 °C 17.9 °C 1015.5 hPa South 3.2 km/h 3.2 km/h 85% 0 mm
01:02 20.6 °C 17.9 °C 1015.8 hPa SSW 3.2 km/h 6.4 km/h 85% 0 mm
01:07 20.6 °C 17.8 °C 1015.5 hPa SSW 3.2 km/h 6.4 km/h 84% 0 mm
01:12 20.6 °C 17.8 °C 1015.8 hPa South 4.8 km/h 4.8 km/h 84% 0 mm
01:17 20.6 °C 17.8 °C 1015.5 hPa South 3.2 km/h 6.4 km/h 84% 0 mm
01:42 20.6 °C 17.9 °C 1015.8 hPa SE 12.9 km/h 12.9 km/h 85% 0 mm
01:47 20.6 °C 17.9 °C 1015.5 hPa SSW 11.3 km/h 16.1 km/h 85% 0 mm
01:52 20.7 °C 18.1 °C 1015.5 hPa South 4.8 km/h 11.3 km/h 85% 0 mm
01:57 20.8 °C 18.2 °C 1015.5 hPa SW 17.7 km/h 17.7 km/h 85% 0 mm
02:02 20.8 °C 18.2 °C 1015.5 hPa SE 6.4 km/h 9.7 km/h 85% 0 mm
02:07 20.8 °C 18.2 °C 1015.5 hPa SSE 8 km/h 14.5 km/h 85% 0 mm
02:12 20.8 °C 18.2 °C 1015.5 hPa SW 11.3 km/h 14.5 km/h 85% 0 mm
02:17 20.7 °C 18.1 °C 1015.1 hPa SSE 3.2 km/h 12.9 km/h 85% 0 mm
02:22 20.7 °C 18.2 °C 1015.1 hPa SSW 6.4 km/h 6.4 km/h 86% 0 mm
02:27 20.6 °C 18.2 °C 1015.1 hPa SE 4.8 km/h 12.9 km/h 86% 0 mm
02:32 20.6 °C 18.1 °C 1015.1 hPa SW 6.4 km/h 9.7 km/h 86% 0 mm
02:37 20.6 °C 18.1 °C 1015.1 hPa South 6.4 km/h 9.7 km/h 86% 0 mm
02:42 20.5 °C 18.3 °C 1015.1 hPa SSW 3.2 km/h 11.3 km/h 87% 0 mm
02:47 20.4 °C 18.2 °C 1015.1 hPa South 4.8 km/h 11.3 km/h 87% 0 mm
02:52 20.4 °C 18.2 °C 1015.1 hPa South 6.4 km/h 8 km/h 87% 0 mm
02:57 20.4 °C 18 °C 1015.1 hPa SSW 6.4 km/h 8 km/h 86% 0 mm
03:02 20.4 °C 18 °C 1015.1 hPa SSE 4.8 km/h 8 km/h 86% 0 mm
03:08 20.4 °C 18 °C 1015.1 hPa SSE 1.6 km/h 6.4 km/h 86% 0 mm
03:13 20.4 °C 18.2 °C 1015.1 hPa SE 4.8 km/h 4.8 km/h 87% 0 mm
03:18 20.3 °C 18.1 °C 1015.1 hPa SE 3.2 km/h 4.8 km/h 87% 0 mm
03:23 20.2 °C 18 °C 1015.1 hPa SSE 3.2 km/h 8 km/h 87% 0 mm
03:28 20.2 °C 18.1 °C 1014.8 hPa SSE 3.2 km/h 4.8 km/h 88% 0 mm
03:33 20.1 °C 18.1 °C 1015.1 hPa SSE 3.2 km/h 4.8 km/h 88% 0 mm
03:38 20.1 °C 18 °C 1014.8 hPa SE 6.4 km/h 6.4 km/h 88% 0 mm
03:43 20.1 °C 18.1 °C 1014.8 hPa SE 1.6 km/h 4.8 km/h 88% 0 mm
03:48 20.1 °C 18.1 °C 1014.8 hPa SE 3.2 km/h 6.4 km/h 88% 0 mm
03:53 20.2 °C 18.1 °C 1015.1 hPa SE 6.4 km/h 9.7 km/h 88% 0 mm
03:55 20.2 °C 18.2 °C 1015.1 hPa SE 6.4 km/h 9.7 km/h 88% 0 mm
04:20 20.3 °C 18.4 °C 1015.5 hPa SE 9.7 km/h 14.5 km/h 89% 0 mm
05:15 19.8 °C 18.4 °C 1016.1 hPa SE 8 km/h 12.9 km/h 92% 0 mm
05:20 19.8 °C 18.4 °C 1015.8 hPa SE 6.4 km/h 12.9 km/h 92% 0 mm
05:25 19.7 °C 18.4 °C 1016.1 hPa South 8 km/h 11.3 km/h 92% 0 mm
05:30 19.7 °C 18.4 °C 1016.1 hPa South 8 km/h 9.7 km/h 92% 0 mm
05:35 19.7 °C 18.5 °C 1016.1 hPa SE 4.8 km/h 11.3 km/h 93% 2.03 mm
05:41 19.7 °C 18.5 °C 1016.1 hPa SW 4.8 km/h 9.7 km/h 93% 2.03 mm
05:46 19.6 °C 18.4 °C 1016.1 hPa SSE 4.8 km/h 8 km/h 93% 2.29 mm
05:51 19.6 °C 18.4 °C 1016.1 hPa SSW 4.8 km/h 4.8 km/h 93% 2.79 mm
05:56 19.6 °C 18.4 °C 1016.1 hPa South 3.2 km/h 4.8 km/h 93% 3.81 mm
06:01 19.5 °C 18.3 °C 1016.1 hPa South 3.2 km/h 3.2 km/h 93% 2.03 mm
06:06 19.5 °C 18.3 °C 1016.1 hPa SSW 3.2 km/h 3.2 km/h 93% 2.54 mm
06:11 19.5 °C 18.3 °C 1016.1 hPa Calm   3.2 km/h 93% 2.29 mm
06:16 19.4 °C 18.3 °C 1016.1 hPa SW 4.8 km/h 4.8 km/h 93% 1.27 mm
06:21 19.4 °C 18.3 °C 1016.5 hPa SW 3.2 km/h 6.4 km/h 93% 1.27 mm
06:26 19.4 °C 18.3 °C 1016.5 hPa SE 1.6 km/h 6.4 km/h 93% 1.27 mm
06:31 19.4 °C 18.2 °C 1016.5 hPa South 1.6 km/h 3.2 km/h 93% 1.02 mm
06:36 19.4 °C 18.2 °C 1016.5 hPa SSW 3.2 km/h 3.2 km/h 93% 0 mm
06:41 19.4 °C 18.2 °C 1016.5 hPa SSW 1.6 km/h 4.8 km/h 93% 0 mm
06:46 19.4 °C 18.2 °C 1016.8 hPa SSW 1.6 km/h 6.4 km/h 93% 0 mm
06:51 19.4 °C 18.2 °C 1016.8 hPa South 1.6 km/h 4.8 km/h 93% 6.1 mm
06:56 19.3 °C 18.2 °C 1016.8 hPa WSW 1.6 km/h 4.8 km/h 93% 4.06 mm
07:01 19.3 °C 18.2 °C 1016.8 hPa SSW 1.6 km/h 3.2 km/h 93% 3.3 mm
07:06 19.3 °C 18.2 °C 1016.8 hPa SW 1.6 km/h 1.6 km/h 93% 1.78 mm
07:11 19.3 °C 18.1 °C 1016.8 hPa SW 1.6 km/h 1.6 km/h 93% 8.89 mm
07:16 19.3 °C 18.1 °C 1016.8 hPa Calm   3.2 km/h 93% 8.64 mm
07:21 19.3 °C 18.1 °C 1016.8 hPa SE 3.2 km/h 4.8 km/h 93% 2.54 mm
07:26 19.3 °C 18.1 °C 1017.2 hPa SE 3.2 km/h 4.8 km/h 93% 2.54 mm
07:32 19.3 °C 18.1 °C 1017.2 hPa SE 6.4 km/h 6.4 km/h 93% 1.52 mm
07:37 19.3 °C 18.1 °C 1017.2 hPa SSE 6.4 km/h 8 km/h 93% 1.02 mm
07:42 19.3 °C 18.1 °C 1017.5 hPa SE 4.8 km/h 8 km/h 93% 1.02 mm
07:47 19.3 °C 18.1 °C 1017.5 hPa SSE 4.8 km/h 8 km/h 93% 1.02 mm
07:52 19.2 °C 18.1 °C 1017.5 hPa ESE 9.7 km/h 11.3 km/h 93% 1.02 mm
07:57 19.2 °C 18 °C 1017.5 hPa ESE 12.9 km/h 12.9 km/h 93% 1.02 mm
08:02 19.2 °C 18 °C 1017.5 hPa SE 8 km/h 12.9 km/h 93% 1.02 mm
08:07 19.2 °C 18 °C 1017.5 hPa ESE 6.4 km/h 9.7 km/h 93% 1.02 mm
08:12 19.1 °C 17.9 °C 1017.5 hPa SE 9.7 km/h 9.7 km/h 93% 1.02 mm
08:17 19.1 °C 17.9 °C 1017.5 hPa SE 4.8 km/h 11.3 km/h 93% 2.29 mm
08:22 19.1 °C 17.9 °C 1017.5 hPa ESE 9.7 km/h 11.3 km/h 93% 3.05 mm
08:27 19.1 °C 17.9 °C 1017.8 hPa SE 4.8 km/h 11.3 km/h 93% 2.29 mm
08:32 19.1 °C 17.9 °C 1017.8 hPa SSE 9.7 km/h 17.7 km/h 93% 2.29 mm
08:37 19.2 °C 18 °C 1017.8 hPa SE 14.5 km/h 16.1 km/h 93% 3.05 mm
08:42 19.1 °C 17.9 °C 1017.8 hPa SE 12.9 km/h 22.5 km/h 93% 12.45 mm
08:47 19.1 °C 17.9 °C 1018.2 hPa ESE 11.3 km/h 16.1 km/h 93% 2.79 mm
08:52 18.8 °C 17.7 °C 1018.2 hPa SE 9.7 km/h 22.5 km/h 93% 2.03 mm
08:57 18.8 °C 17.6 °C 1017.8 hPa ESE 8 km/h 16.1 km/h 93% 2.03 mm
09:02 18.8 °C 17.7 °C 1017.8 hPa ESE 17.7 km/h 17.7 km/h 93% 2.03 mm
09:07 18.9 °C 17.8 °C 1017.8 hPa East 8 km/h 12.9 km/h 93% 2.54 mm
09:12 19 °C 17.8 °C 1017.8 hPa East 6.4 km/h 12.9 km/h 93% 2.03 mm
09:18 19.1 °C 17.9 °C 1017.8 hPa East 4.8 km/h 14.5 km/h 93% 2.03 mm
09:23 19.1 °C 17.9 °C 1017.8 hPa ESE 6.4 km/h 9.7 km/h 93% 1.27 mm
09:28 19.1 °C 17.9 °C 1018.2 hPa ESE 8 km/h 12.9 km/h 93% 1.02 mm
09:33 19.1 °C 17.9 °C 1018.2 hPa ESE 9.7 km/h 11.3 km/h 93% 0 mm
09:38 19 °C 17.7 °C 1018.2 hPa East 6.4 km/h 11.3 km/h 92% 0 mm
09:43 19.1 °C 17.7 °C 1018.2 hPa East 6.4 km/h 9.7 km/h 92% 0 mm
09:48 19.1 °C 17.7 °C 1017.8 hPa ESE 8 km/h 11.3 km/h 92% 0 mm
09:53 19.1 °C 17.7 °C 1017.8 hPa East 4.8 km/h 12.9 km/h 92% 0 mm
09:58 19.2 °C 17.8 °C 1017.8 hPa East 4.8 km/h 8 km/h 92% 0 mm
10:03 19.2 °C 17.8 °C 1017.8 hPa ESE 6.4 km/h 11.3 km/h 92% 0 mm
10:08 19.2 °C 17.9 °C 1017.8 hPa ESE 8 km/h 9.7 km/h 92% 0 mm
10:13 19.2 °C 17.9 °C 1017.8 hPa ESE 6.4 km/h 12.9 km/h 92% 0 mm
10:18 19.3 °C 18 °C 1017.8 hPa SE 9.7 km/h 11.3 km/h 92% 0 mm
10:23 19.4 °C 18.1 °C 1017.8 hPa ESE 4.8 km/h 9.7 km/h 92% 0 mm
10:28 19.5 °C 18.2 °C 1017.8 hPa East 9.7 km/h 11.3 km/h 92% 0 mm
10:33 19.7 °C 18.2 °C 1017.8 hPa ESE 6.4 km/h 9.7 km/h 91% 0 mm
10:38 19.8 °C 18.3 °C 1017.8 hPa ESE 9.7 km/h 12.9 km/h 91% 0 mm
10:43 20 °C 18.5 °C 1017.8 hPa SE 6.4 km/h 11.3 km/h 91% 0 mm
10:48 20.2 °C 18.3 °C 1017.8 hPa SE 9.7 km/h 16.1 km/h 89% 0 mm
10:53 20.6 °C 18.7 °C 1018.2 hPa East 6.4 km/h 14.5 km/h 89% 0 mm
10:58 20.8 °C 18.6 °C 1018.2 hPa SE 14.5 km/h 17.7 km/h 87% 0 mm
11:03 20.8 °C 18.6 °C 1018.2 hPa East 16.1 km/h 16.1 km/h 87% 0 mm
11:08 20.8 °C 18.6 °C 1018.2 hPa SE 16.1 km/h 19.3 km/h 87% 0 mm
11:13 20.8 °C 18.6 °C 1018.2 hPa SE 11.3 km/h 14.5 km/h 87% 0 mm
11:18 20.8 °C 18.6 °C 1018.2 hPa ESE 12.9 km/h 19.3 km/h 87% 0 mm
11:23 20.8 °C 18.6 °C 1018.2 hPa ESE 9.7 km/h 22.5 km/h 87% 0 mm
11:28 21 °C 18.6 °C 1018.2 hPa ESE 17.7 km/h 30.6 km/h 86% 0 mm
11:33 21.1 °C 18.7 °C 1018.2 hPa ESE 24.1 km/h 24.1 km/h 86% 0 mm
11:38 21 °C 18.6 °C 1018.2 hPa SE 12.9 km/h 27.4 km/h 86% 0 mm
11:43 21 °C 18.4 °C 1018.2 hPa ESE 14.5 km/h 24.1 km/h 85% 0 mm
11:48 21.1 °C 18.3 °C 1018.2 hPa SE 12.9 km/h 20.9 km/h 84% 0 mm
11:54 21.3 °C 18.5 °C 1017.8 hPa SSE 12.9 km/h 19.3 km/h 84% 0 mm
11:58 21.3 °C 18.4 °C 1017.8 hPa ESE 9.7 km/h 19.3 km/h 84% 0 mm
12:04 21.2 °C 18.6 °C 1017.8 hPa ESE 12.9 km/h 19.3 km/h 85% 0 mm
12:09 21.6 °C 19.1 °C 1017.8 hPa SE 11.3 km/h 14.5 km/h 86% 0 mm
12:14 21.6 °C 18.6 °C 1017.8 hPa SSE 12.9 km/h 17.7 km/h 83% 0 mm
12:19 21.6 °C 19 °C 1017.8 hPa SSE 16.1 km/h 17.7 km/h 85% 0 mm
12:24 21.6 °C 18.7 °C 1017.8 hPa ESE 16.1 km/h 19.3 km/h 84% 0 mm
12:27 21.4 °C 18.8 °C 1017.8 hPa SSE 14.5 km/h 22.5 km/h 85% 0 mm
12:32 21.6 °C 18.9 °C 1017.8 hPa SE 14.5 km/h 22.5 km/h 85% 0 mm
12:37 21.6 °C 18.7 °C 1017.8 hPa South 16.1 km/h 25.7 km/h 84% 0 mm
12:42 21.6 °C 19.2 °C 1017.8 hPa SSE 6.4 km/h 19.3 km/h 86% 0 mm
12:48 21.6 °C 19.2 °C 1017.8 hPa SSE 12.9 km/h 19.3 km/h 86% 0 mm
12:53 21.6 °C 19.1 °C 1017.8 hPa SSE 14.5 km/h 19.3 km/h 86% 0 mm
12:58 21.4 °C 18.9 °C 1017.8 hPa SSE 9.7 km/h 14.5 km/h 86% 0 mm
13:03 21.4 °C 18.9 °C 1017.8 hPa SE 12.9 km/h 12.9 km/h 86% 0 mm
13:08 21.4 °C 19.1 °C 1017.8 hPa SE 9.7 km/h 17.7 km/h 87% 0 mm
13:13 21.6 °C 19.2 °C 1017.8 hPa SSE 8 km/h 14.5 km/h 86% 0 mm
13:18 22 °C 19.4 °C 1017.8 hPa SE 12.9 km/h 20.9 km/h 85% 0 mm
13:23 22.6 °C 19.9 °C 1017.5 hPa SSE 11.3 km/h 19.3 km/h 85% 0 mm
13:28 22.7 °C 19.7 °C 1017.5 hPa SE 14.5 km/h 17.7 km/h 83% 0 mm
13:33 22.9 °C 19.7 °C 1017.8 hPa SSW 9.7 km/h 16.1 km/h 82% 0 mm
13:38 23 °C 19.8 °C 1017.5 hPa SE 12.9 km/h 17.7 km/h 82% 0 mm
13:43 22.9 °C 19.4 °C 1017.5 hPa SSE 12.9 km/h 22.5 km/h 81% 0 mm
13:48 22.8 °C 19.6 °C 1017.5 hPa SSE 17.7 km/h 20.9 km/h 82% 0 mm
13:53 22.8 °C 19.3 °C 1017.5 hPa SE 20.9 km/h 24.1 km/h 81% 0 mm
13:58 23 °C 19.9 °C 1017.5 hPa SE 22.5 km/h 22.5 km/h 83% 0 mm
14:03 23.2 °C 20 °C 1017.5 hPa SSE 8 km/h 16.1 km/h 82% 0 mm
14:09 23.1 °C 19.6 °C 1017.5 hPa SE 17.7 km/h 17.7 km/h 81% 0 mm
14:14 22.9 °C 19.4 °C 1017.5 hPa SE 16.1 km/h 17.7 km/h 81% 0 mm
14:19 22.8 °C 19.6 °C 1017.5 hPa SSE 16.1 km/h 19.3 km/h 82% 0 mm
14:24 22.9 °C 19.7 °C 1017.5 hPa ESE 17.7 km/h 17.7 km/h 82% 0 mm
14:29 22.9 °C 20.1 °C 1017.2 hPa ESE 8 km/h 16.1 km/h 84% 0 mm
14:30 23 °C 19.8 °C 1017.2 hPa ESE 14.5 km/h 16.1 km/h 82% 0 mm
14:32 23.2 °C 19.8 °C 1017.2 hPa ESE 11.3 km/h 20.9 km/h 81% 0 mm
14:37 23.8 °C 20.1 °C 1017.5 hPa SE 16.1 km/h 19.3 km/h 80% 0 mm
14:42 23.6 °C 19.9 °C 1017.5 hPa SSE 17.7 km/h 17.7 km/h 80% 0 mm
14:47 23.6 °C 19.9 °C 1017.2 hPa ESE 16.1 km/h 25.7 km/h 80% 0 mm
14:52 23.6 °C 20.2 °C 1017.2 hPa SE 12.9 km/h 27.4 km/h 81% 0 mm
14:57 23.4 °C 20 °C 1017.2 hPa SSE 14.5 km/h 19.3 km/h 81% 0 mm
15:02 23.4 °C 20.2 °C 1017.2 hPa SE 17.7 km/h 17.7 km/h 82% 0 mm
15:07 23.7 °C 20 °C 1016.8 hPa SE 16.1 km/h 24.1 km/h 80% 0 mm
15:12 23.6 °C 19.7 °C 1017.2 hPa South 16.1 km/h 20.9 km/h 79% 0 mm
15:17 23.2 °C 19.4 °C 1017.2 hPa ESE 16.1 km/h 20.9 km/h 79% 0 mm
15:22 23 °C 19.4 °C 1017.2 hPa ESE 16.1 km/h 17.7 km/h 80% 0 mm
15:27 22.9 °C 19.5 °C 1017.2 hPa ESE 9.7 km/h 22.5 km/h 81% 0 mm
15:32 22.9 °C 19.4 °C 1016.8 hPa ESE 11.3 km/h 24.1 km/h 81% 0 mm
15:37 22.8 °C 19.3 °C 1016.8 hPa SE 11.3 km/h 22.5 km/h 81% 0 mm
15:42 22.7 °C 19.4 °C 1016.8 hPa SE 14.5 km/h 14.5 km/h 82% 0 mm
15:47 22.6 °C 19.7 °C 1016.8 hPa SSE 6.4 km/h 17.7 km/h 84% 0 mm
15:52 22.5 °C 19.5 °C 1016.8 hPa SE 8 km/h 17.7 km/h 83% 0 mm
15:57 22.5 °C 19.7 °C 1016.5 hPa SE 8 km/h 14.5 km/h 84% 0 mm
16:02 22.6 °C 20.2 °C 1016.5 hPa SE 6.4 km/h 9.7 km/h 86% 1.52 mm
16:07 22.8 °C 20.5 °C 1016.5 hPa SE 9.7 km/h 12.9 km/h 87% 1.52 mm
16:12 22.8 °C 20.1 °C 1016.5 hPa SE 11.3 km/h 14.5 km/h 85% 1.27 mm
16:17 22.8 °C 20.3 °C 1016.1 hPa SSE 14.5 km/h 14.5 km/h 86% 1.02 mm
16:23 22.8 °C 20.2 °C 1016.5 hPa SE 6.4 km/h 12.9 km/h 85% 0 mm
16:28 22.8 °C 20 °C 1016.5 hPa SE 16.1 km/h 19.3 km/h 84% 0 mm
16:33 22.9 °C 20.1 °C 1016.1 hPa SE 9.7 km/h 17.7 km/h 84% 0 mm
16:38 22.9 °C 20.1 °C 1016.5 hPa SE 8 km/h 12.9 km/h 84% 0 mm
16:43 23 °C 20.2 °C 1016.1 hPa ESE 11.3 km/h 17.7 km/h 84% 0 mm
16:48 22.9 °C 19.8 °C 1016.5 hPa SE 11.3 km/h 19.3 km/h 83% 0 mm
16:53 22.8 °C 20 °C 1016.1 hPa SE 11.3 km/h 14.5 km/h 84% 0 mm
16:58 22.8 °C 20.2 °C 1016.1 hPa ESE 12.9 km/h 14.5 km/h 85% 0 mm
17:03 22.8 °C 20 °C 1016.1 hPa SE 8 km/h 20.9 km/h 84% 0 mm
17:08 22.8 °C 20 °C 1016.1 hPa SE 11.3 km/h 17.7 km/h 84% 0 mm
17:13 22.8 °C 20 °C 1016.1 hPa ESE 9.7 km/h 11.3 km/h 84% 0 mm
17:18 22.8 °C 19.9 °C 1016.1 hPa ESE 9.7 km/h 12.9 km/h 84% 0 mm
17:23 22.7 °C 20.1 °C 1016.5 hPa SE 9.7 km/h 11.3 km/h 85% 0 mm
17:28 22.7 °C 19.8 °C 1016.5 hPa SE 4.8 km/h 19.3 km/h 84% 0 mm
17:33 22.7 °C 19.7 °C 1016.5 hPa SE 12.9 km/h 16.1 km/h 83% 0 mm
17:38 22.8 °C 19.9 °C 1016.1 hPa SE 6.4 km/h 11.3 km/h 84% 0 mm
17:43 22.8 °C 19.7 °C 1016.5 hPa SE 11.3 km/h 14.5 km/h 83% 0 mm
17:48 22.8 °C 20 °C 1016.1 hPa SE 4.8 km/h 11.3 km/h 84% 0 mm
17:53 22.8 °C 20 °C 1016.1 hPa SE 11.3 km/h 16.1 km/h 84% 0 mm
17:58 22.8 °C 20 °C 1016.1 hPa SE 14.5 km/h 17.7 km/h 84% 0 mm
18:03 22.8 °C 20 °C 1016.1 hPa ESE 14.5 km/h 17.7 km/h 84% 0 mm
18:06 22.8 °C 19.7 °C 1016.1 hPa SE 11.3 km/h 17.7 km/h 83% 0 mm
18:07 22.8 °C 19.9 °C 1016.1 hPa ESE 14.5 km/h 17.7 km/h 84% 0 mm
18:12 22.7 °C 19.9 °C 1016.1 hPa SE 11.3 km/h 17.7 km/h 84% 0 mm
18:17 22.7 °C 19.9 °C 1016.1 hPa ESE 12.9 km/h 14.5 km/h 84% 0 mm
18:22 22.6 °C 19.8 °C 1016.1 hPa SE 11.3 km/h 16.1 km/h 84% 0 mm
18:27 22.6 °C 19.7 °C 1016.1 hPa ESE 6.4 km/h 14.5 km/h 84% 0 mm
18:32 22.4 °C 19.8 °C 1016.1 hPa ESE 9.7 km/h 14.5 km/h 85% 0 mm
18:37 22.4 °C 19.9 °C 1016.1 hPa SE 4.8 km/h 11.3 km/h 86% 0 mm
18:42 22.4 °C 19.7 °C 1016.1 hPa ESE 20.9 km/h 20.9 km/h 85% 0 mm
18:48 22.4 °C 19.7 °C 1016.1 hPa SE 9.7 km/h 12.9 km/h 85% 0 mm
18:53 22.4 °C 19.9 °C 1016.1 hPa SE 4.8 km/h 12.9 km/h 86% 0 mm
18:58 22.4 °C 19.7 °C 1016.1 hPa ESE 11.3 km/h 17.7 km/h 85% 0 mm
19:03 22.4 °C 19.7 °C 1016.1 hPa SE 8 km/h 16.1 km/h 85% 0 mm
19:08 22.3 °C 19.7 °C 1016.1 hPa SE 9.7 km/h 11.3 km/h 85% 0 mm
19:13 22.3 °C 19.8 °C 1016.1 hPa ESE 6.4 km/h 12.9 km/h 86% 0 mm
19:18 22.3 °C 19.8 °C 1015.8 hPa ESE 16.1 km/h 16.1 km/h 86% 0 mm
19:23 22.3 °C 19.6 °C 1015.8 hPa SE 6.4 km/h 17.7 km/h 85% 0 mm
19:28 22.2 °C 19.6 °C 1015.8 hPa ESE 6.4 km/h 12.9 km/h 85% 0 mm
19:33 22.2 °C 19.6 °C 1015.8 hPa SSE 8 km/h 17.7 km/h 85% 0 mm
19:38 22.1 °C 19.5 °C 1015.8 hPa SSE 14.5 km/h 17.7 km/h 85% 0 mm
19:43 21.9 °C 19.5 °C 1015.8 hPa SSE 4.8 km/h 14.5 km/h 86% 0 mm
19:48 21.8 °C 19.5 °C 1015.8 hPa SSE 11.3 km/h 12.9 km/h 87% 0 mm
19:54 21.6 °C 19.6 °C 1015.8 hPa SE 6.4 km/h 12.9 km/h 88% 0 mm
19:59 21.5 °C 19.4 °C 1015.8 hPa ESE 8 km/h 14.5 km/h 88% 0 mm
20:04 21.4 °C 19.5 °C 1015.8 hPa SE 8 km/h 9.7 km/h 89% 0 mm
20:09 21.4 °C 19.5 °C 1015.8 hPa SE 9.7 km/h 14.5 km/h 89% 0 mm
20:14 21.4 °C 19.5 °C 1015.8 hPa SE 9.7 km/h 16.1 km/h 89% 0 mm
20:19 21.3 °C 19.4 °C 1015.8 hPa SE 8 km/h 12.9 km/h 89% 0 mm
20:24 21.3 °C 19.6 °C 1015.8 hPa SE 9.7 km/h 12.9 km/h 90% 0 mm
20:29 21.3 °C 19.6 °C 1015.8 hPa SE 11.3 km/h 19.3 km/h 90% 0 mm
20:34 21.2 °C 19.5 °C 1015.8 hPa SE 11.3 km/h 12.9 km/h 90% 0 mm
20:39 21.2 °C 19.5 °C 1016.1 hPa SE 14.5 km/h 14.5 km/h 90% 0 mm
20:44 21.2 °C 19.4 °C 1016.1 hPa SE 8 km/h 11.3 km/h 90% 0 mm
20:49 21.2 °C 19.4 °C 1016.1 hPa SSE 11.3 km/h 14.5 km/h 90% 0 mm
20:54 21.1 °C 19.4 °C 1016.1 hPa SE 8 km/h 11.3 km/h 90% 0 mm
20:59 21.1 °C 19.4 °C 1016.1 hPa SSE 11.3 km/h 12.9 km/h 90% 0 mm
21:04 21.1 °C 19.3 °C 1016.1 hPa SSE 4.8 km/h 12.9 km/h 90% 0 mm
21:09 21 °C 19.3 °C 1016.1 hPa SSE 9.7 km/h 11.3 km/h 90% 0 mm
21:15 20.9 °C 19.2 °C 1016.1 hPa South 8 km/h 14.5 km/h 90% 0 mm
21:20 20.9 °C 19.2 °C 1016.1 hPa SSE 8 km/h 9.7 km/h 90% 0 mm
21:25 20.8 °C 19.1 °C 1016.1 hPa SE 6.4 km/h 9.7 km/h 90% 0 mm
21:30 20.7 °C 19 °C 1016.1 hPa SE 8 km/h 11.3 km/h 90% 0 mm
21:35 20.7 °C 19 °C 1016.1 hPa SSE 8 km/h 14.5 km/h 90% 0 mm
21:40 20.6 °C 18.8 °C 1016.1 hPa SE 11.3 km/h 11.3 km/h 90% 0 mm
21:45 20.5 °C 18.8 °C 1015.8 hPa SE 6.4 km/h 14.5 km/h 90% 0 mm
21:46 20.5 °C 18.8 °C 1015.8 hPa SE 8 km/h 14.5 km/h 90% 0 mm
21:51 20.5 °C 18.8 °C 1016.1 hPa SE 11.3 km/h 14.5 km/h 90% 0 mm
21:56 20.4 °C 18.7 °C 1016.1 hPa SE 8 km/h 11.3 km/h 90% 0 mm
22:01 20.3 °C 18.8 °C 1016.1 hPa SE 6.4 km/h 11.3 km/h 91% 0 mm
22:06 20.3 °C 18.8 °C 1016.1 hPa SE 6.4 km/h 12.9 km/h 91% 0 mm
22:11 20.2 °C 18.7 °C 1016.1 hPa ESE 9.7 km/h 11.3 km/h 91% 0 mm
22:16 20.2 °C 18.7 °C 1016.1 hPa ESE 8 km/h 11.3 km/h 91% 0 mm
22:21 20.1 °C 18.6 °C 1016.1 hPa ESE 6.4 km/h 8 km/h 91% 0 mm
22:26 20 °C 18.7 °C 1016.1 hPa SE 3.2 km/h 6.4 km/h 92% 0 mm
22:31 19.9 °C 18.6 °C 1016.5 hPa SE 1.6 km/h 4.8 km/h 92% 0 mm
22:37 19.8 °C 18.5 °C 1016.5 hPa SSE 3.2 km/h 6.4 km/h 92% 0 mm
22:42 19.8 °C 18.4 °C 1016.5 hPa SE 3.2 km/h 4.8 km/h 92% 0 mm
22:47 19.7 °C 18.4 °C 1016.5 hPa SE 3.2 km/h 4.8 km/h 92% 0 mm
22:52 19.7 °C 18.3 °C 1016.5 hPa SE 6.4 km/h 8 km/h 92% 0 mm
22:57 19.6 °C 18.3 °C 1016.1 hPa ESE 6.4 km/h 6.4 km/h 92% 0 mm
23:02 19.6 °C 18.4 °C 1016.5 hPa SE 3.2 km/h 8 km/h 93% 0 mm
23:07 19.6 °C 18.4 °C 1016.5 hPa SE 3.2 km/h 6.4 km/h 93% 0 mm
23:12 19.5 °C 18.3 °C 1016.1 hPa ESE 6.4 km/h 6.4 km/h 93% 0 mm
23:17 19.4 °C 18.3 °C 1016.1 hPa ESE 8 km/h 8 km/h 93% 0 mm
23:22 19.4 °C 18.2 °C 1016.1 hPa SE 6.4 km/h 6.4 km/h 93% 0 mm
23:27 19.4 °C 18.3 °C 1016.1 hPa SE 8 km/h 9.7 km/h 93% 0 mm
23:32 19.4 °C 18.3 °C 1016.1 hPa SE 8 km/h 9.7 km/h 93% 0 mm
23:37 19.4 °C 18.3 °C 1016.1 hPa SE 4.8 km/h 11.3 km/h 93% 0 mm
23:42 19.4 °C 18.2 °C 1015.8 hPa SE 4.8 km/h 8 km/h 93% 0 mm
23:47 19.4 °C 18.2 °C 1015.8 hPa SE 6.4 km/h 9.7 km/h 93% 0 mm
23:52 19.4 °C 18.2 °C 1015.8 hPa SE 3.2 km/h 8 km/h 93% 0 mm
23:57 19.3 °C 18.2 °C 1015.8 hPa SE 8 km/h 8 km/h 93% 0 mm
Compliments of Weather Underground